Regional Weather Roundup
Issued by NWS Kansas City/Pleasant Hill, MO

Home | Current Version | Previous Version | Graphics & Text | Print | Product List | Glossary Off
Versions: 1 2 3 4 5 6 7 8 9 10 11 12 13 14 15 16 17 18 19 20 21 22 23 24 25 26 27 28 29 30 31 32 33 34 35 36 37 38 39 40 41 42 43 44 45 46 47 48 49 50

809
ASUS43 KEAX 040410
RWREAX

WEATHER ROUNDUP FOR EASTERN KANSAS AND NORTHWEST MISSOURI
NATIONAL WEATHER SERVICE KANSAS CITY/PLEASANT HILL MO
1100 PM CDT TUE MAY 03 2016

KSZ040-057-103>105-MOZ028-029-037-043-040500-
...KANSAS CITY METROPOLITAN AREA...

CITY           SKY/WX    TMP DP  RH WIND       PRES   REMARKS
K.C. INTL      CLEAR     54  43  66 SW7       29.92F
K.C. DOWNTOWN  CLEAR     58  45  62 SW6       29.92F
LEES SUMMIT    CLEAR     57  45  64 SW6       29.93F
OLATHE - IXD   CLEAR     54  46  74 SW3       29.95F
OLATHE - OJC   CLEAR     56  45  66 CALM      29.94F
LAWRENCE       CLEAR     50  47  89 CALM      29.94F

$$

MOZ001>008-011>017-020>025-030>033-038>040-044>046-053-054-040500-
...NORTHERN AND CENTRAL MISSOURI...

CITY           SKY/WX    TMP DP  RH WIND       PRES   REMARKS
ST. JOSEPH     CLEAR     59  43  55 W10       29.90F
MOSBY          CLEAR     52  46  82 CALM      29.91F
WARRENSBURG    CLEAR     55  43  62 SW6       29.92F
WHITEMAN AFB   CLEAR     55  44  67 SW7       29.91F
CLINTON        PTCLDY    54  46  76 CALM      29.94F
SEDALIA        CLEAR     56  44  64 SW8       29.93F
WARSAW         NOT AVBL
CHILLICOTHE      N/A     57  45  64 SW3       29.88F
KIRKSVILLE     CLEAR     55  41  59 SW7       29.85F

$$

MOZ041-047>049-056>058-063>065-088>090-097-040500-
...EASTERN AND SOUTHERN MISSOURI...

CITY           SKY/WX    TMP DP  RH WIND       PRES   REMARKS
ST. LOUIS INTL PTCLDY    58  42  55 SW8       29.89F
SPIRIT OF STL  PTCLDY    51  45  79 W5        29.89F
COLUMBIA       CLEAR     53  43  68 SW9       29.90F
JEFFERSON CITY CLEAR     54  45  71 CALM      29.91F
ROLLA          CLEAR     47  40  76 SW9       29.92F
OSAGE BEACH    CLEAR     48  37  66 CALM      29.94F
SPRINGFIELD    CLEAR     50  41  71 SW7       29.97F
JOPLIN         CLEAR     51  46  83 S7        29.99F
WEST PLAINS    CLEAR     49  41  74 CALM      29.99S

$$

IAZ060-094-KSZ022-034>040-054-083-096-NEZ052-066-093-040500-
...KANSAS...SOUTHEAST NEBRASKA AND IOWA...

CITY           SKY/WX    TMP DP  RH WIND       PRES   REMARKS
TOPEKA         CLEAR     55  47  74 CALM      29.94F
MANHATTAN      CLEAR     52  46  80 CALM      29.97S
EMPORIA        CLEAR     57  46  66 W6        29.97S
CHANUTE        CLEAR     56  47  71 SW9       29.97F
WICHITA        PTCLDY    58  45  62 NW8       30.01R
OMAHA          MOCLDY    62  45  53 CALM      29.85F
LINCOLN        CLEAR     60  45  57 W7        29.91F
FALLS CITY     CLEAR     57  43  59 SW9       29.90F
LAMONI         CLEAR     57  44  62 SW13      29.83F
DES MOINES     LGT RAIN  59  46  62 W10       29.78F

$$





USA.gov is the U.S. government's official web portal to all federal, state and local government web resources and services.